IU3OVK-13 Weather Reports


time (UTC)temp
F
wind
direction
speed
knots
gust
knots
rain 1hr
in
rain 24hr
in
rain mn
in
humidity
%
barometer
mb
20260507164228 62 0.0 0.0 0.00 0.00 0.00 99 1006.8
20260507163208 62 0.0 0.0 0.00 0.00 0.00 99 1006.9
20260507160108 63 0.0 0.0 0.00 0.00 0.00 99 1006.5
20260507153007 60 0.0 0.0 0.00 0.00 0.00 99 1006.6
20260507151947 61 0.0 0.0 0.00 0.00 0.00 99 1006.2
20260507150927 61 0.0 0.0 0.00 0.00 0.00 99 1006.5
20260507145908 64 0.0 0.0 0.00 0.00 0.00 99 1005.9
20260507143826 63 0.0 0.0 0.00 0.00 0.00 99 1005.7
20260507142806 63 0.0 0.0 0.00 0.00 0.00 99 1005.9
20260507140726 59 0.0 0.0 0.00 0.00 0.00 99 1006.4
20260507135706 60 0.0 0.0 0.00 0.00 0.00 99 1006.8
20260507134645 60 0.0 0.0 0.00 0.00 0.00 99 1006.4
20260507133626 58 0.0 0.0 0.00 0.00 0.00 99 1006.9
20260507132605 59 0.0 0.0 0.00 0.00 0.00 99 1006.5
20260507131546 60 0.0 0.0 0.00 0.00 0.00 99 1006.3
20260507130525 57 0.0 0.0 0.00 0.00 0.00 99 1006.3
20260507124445 57 0.0 0.0 0.00 0.00 0.00 99 1006.3
20260507121345 65 0.0 0.0 0.00 0.00 0.00 99 1007.0
20260507120324 66 0.0 0.0 0.00 0.00 0.00 99 1006.7
20260507115307 67 0.0 0.0 0.00 0.00 0.00 99 1006.9
20260507112204 75 0.0 0.0 0.00 0.00 0.00 99 1005.4
20260507110123 74 0.0 0.0 0.00 0.00 0.00 99 1005.5
20260507105103 74 0.0 0.0 0.00 0.00 0.00 99 1005.7
20260507104044 71 0.0 0.0 0.00 0.00 0.00 99 1006.1
20260507103023 75 0.0 0.0 0.00 0.00 0.00 99 1005.8
20260507102003 68 0.0 0.0 0.00 0.00 0.00 99 1007.9
20260507100943 71 0.0 0.0 0.00 0.00 0.00 99 1008.2
20260507095922 75 0.0 0.0 0.00 0.00 0.00 99 1008.4
20260507092818 96 0.0 0.0 0.00 0.00 0.00 70 1001.5
20260507091758 97 0.0 0.0 0.00 0.00 0.00 71 998.3
20260507085718 99 0.0 0.0 0.00 0.00 0.00 75 1001.6
20260507083635 90 0.0 0.0 0.00 0.00 0.00 95 999.7
20260507082615 90 0.0 0.0 0.00 0.00 0.00 95 999.6
20260507075511 85 0.0 0.0 0.00 0.00 0.00 93 1004.2
20260507074451 85 0.0 0.0 0.00 0.00 0.00 99 1006.8
20260507073430 91 0.0 0.0 0.00 0.00 0.00 97 1003.5
20260507072410 88 0.0 0.0 0.00 0.00 0.00 99 1004.6
20260507071350 88 0.0 0.0 0.00 0.00 0.00 99 1004.6
20260507070326 60 0.0 0.0 0.00 0.00 0.00 99 1007.0
20260507065306 58 0.0 0.0 0.00 0.00 0.00 99 1006.9
20260507064246 58 0.0 0.0 0.00 0.00 0.00 99 1006.7
20260507063226 55 0.0 0.0 0.00 0.00 0.00 99 1006.9
20260507062206 55 0.0 0.0 0.00 0.00 0.00 99 1006.6
20260507054045 53 0.0 0.0 0.00 0.00 0.00 99 1006.2
20260507053025 53 0.0 0.0 0.00 0.00 0.00 99 1006.1
20260507052005 52 0.0 0.0 0.00 0.00 0.00 99 1006.2
20260507044904 52 0.0 0.0 0.00 0.00 0.00 99 1005.7
20260506220929 54 0.0 0.0 0.00 0.00 0.00 99 1005.2
20260506215909 54 0.0 0.0 0.00 0.00 0.00 99 1005.2
20260506214849 54 0.0 0.0 0.00 0.00 0.00 99 1005.1
20260506212858 54 0.0 0.0 0.00 0.00 0.00 99 1004.9
20260506212809 54 0.0 0.0 0.00 0.00 0.00 99 1004.9
20260506211748 53 0.0 0.0 0.00 0.00 0.00 99 1005.2
20260506210728 54 0.0 0.0 0.00 0.00 0.00 99 1005.2
20260506205708 54 0.0 0.0 0.00 0.00 0.00 99 1005.1
20260506204648 54 0.0 0.0 0.00 0.00 0.00 99 1005.0
20260506203714 55 0.0 0.0 0.00 0.00 0.00 99 1004.7
20260506203629 55 0.0 0.0 0.00 0.00 0.00 99 1004.7
20260506200528 55 0.0 0.0 0.00 0.00 0.00 99 1004.2
20260506194447 55 0.0 0.0 0.00 0.00 0.00 99 1004.1
20260506184247 57 0.0 0.0 0.00 0.00 0.00 99 1003.5
20260506183226 57 0.0 0.0 0.00 0.00 0.00 99 1003.4
20260506181146 58 0.0 0.0 0.00 0.00 0.00 99 1003.2
20260506175106 59 0.0 0.0 0.00 0.00 0.00 99 1003.3
20260506174045 59 0.0 0.0 0.00 0.00 0.00 99 1003.2
20260506173025 60 0.0 0.0 0.00 0.00 0.00 99 1003.0
20260506172005 61 0.0 0.0 0.00 0.00 0.00 99 1002.8
20260506165925 59 0.0 0.0 0.00 0.00 0.00 99 1002.7
20260506164905 59 0.0 0.0 0.00 0.00 0.00 99 1002.8